Sitka, Alaska, United States (99835)
Lat: 57.05N, Lon: 135.33W
Wx Zone: AKZ023
Local Info
Past Weather Observations for Friday, January 23, 2015

NOTE: This archive is for the closest National Weather Service station to Sitka. Information may differ from the station used for current weather conditions.

Click here for Long-term Archive

Time Weather Temperature Dewpoint Humidity Pressure Winds Precip Visibility
23:53
Overcast
Light Rain
45°F / 7°C 41°F / 5°C 87% 29.86 in
(1011 mb)
SSE 17.3 mph
(SSE 28 kph)
0.03 in
(0.76 mm)
7SM
23:22
Overcast
Light Rain
45°F / 7°C 41°F / 5°C 87% 29.86 in
(1011 mb)
S 10.4 mph
(S 17 kph)
0.03 in
(0.76 mm)
4SM
22:53
Overcast
Light Rain
45°F / 7°C 41°F / 5°C 87% 29.86 in
(1011 mb)
S 11.5 mph
(S 19 kph)
0.02 in
(0.51 mm)
7SM
21:53
Overcast
Light Rain
45°F / 7°C 39°F / 4°C 81% 29.83 in
(1010 mb)
S 11.5 mph
(S 19 kph)
0.02 in
(0.51 mm)
8SM
21:18
Overcast
45°F / 7°C 41°F / 5°C 87% 29.8 in
(1009 mb)
S 13.8 mph
(S 22 kph)
0.00 in
(0.00 mm)
8SM
21:02
Overcast
Light Rain
45°F / 7°C 39°F / 4°C 81% 29.8 in
(1009 mb)
S 21.9 mph
(S 35 kph)
0.00 in
(0.00 mm)
8SM
20:53
Overcast
Light Rain
45°F / 7°C 39°F / 4°C 81% 29.77 in
(1008 mb)
SSE 16.1 mph
(SSE 26 kph)
0.01 in
(0.25 mm)
8SM
20:00
Overcast
45°F / 7°C 37°F / 3°C 76% 29.77 in
(1008 mb)
S 12.7 mph
(S 20 kph)
- 10SM
19:53
Overcast
45°F / 7°C 37°F / 3°C 76% 29.77 in
(1008 mb)
S 15 mph
(S 24 kph)
0.00 in
(0.00 mm)
10SM
18:53
Overcast
Light Rain
45°F / 7°C 41°F / 5°C 87% 29.71 in
(1006 mb)
S 17.3 mph
(S 28 kph)
0.10 in
(2.54 mm)
4SM
18:38
Overcast
Heavy Rain
45°F / 7°C 39°F / 4°C 81% 29.71 in
(1006 mb)
SSE 18.4 mph
(SSE 30 kph)
0.06 in
(1.52 mm)
2 1/2SM
17:53
Overcast
Light Rain
45°F / 7°C 39°F / 4°C 81% 29.68 in
(1005 mb)
SSE 15 mph
(SSE 24 kph)
0.01 in
(0.25 mm)
5SM
16:53
Overcast
45°F / 7°C 39°F / 4°C 81% 29.65 in
(1004 mb)
S 20.7 mph
(S 33 kph)
0.03 in
(0.76 mm)
9SM
16:50
Overcast
45°F / 7°C 39°F / 4°C 81% 29.65 in
(1004 mb)
S 19.6 mph
(S 32 kph)
0.03 in
(0.76 mm)
9SM
15:53
Overcast
Light Rain
45°F / 7°C 41°F / 5°C 87% 29.59 in
(1002 mb)
S 23 mph
(S 37 kph)
0.02 in
(0.51 mm)
3SM
14:53
Overcast
Light Rain
45°F / 7°C 43°F / 6°C 93% 29.56 in
(1001 mb)
S 23 mph
(S 37 kph)
0.04 in
(1.02 mm)
5SM
14:13
Overcast
Light Rain
45°F / 7°C 43°F / 6°C 93% 29.53 in
(1000 mb)
S 21.9 mph
(S 35 kph)
0.01 in
(0.25 mm)
2SM
14:05
Overcast
Light Rain
45°F / 7°C 43°F / 6°C 93% 29.53 in
(1000 mb)
S 23 mph
(S 37 kph)
0.00 in
(0.00 mm)
2SM
14:03
Overcast
Light Rain
45°F / 7°C 43°F / 6°C 93% 29.53 in
(1000 mb)
S 20.7 mph
(S 33 kph)
0.00 in
(0.00 mm)
4SM
13:53
Overcast
Light Rain
45°F / 7°C 43°F / 6°C 93% 29.53 in
(1000 mb)
S 25.3 mph
(S 41 kph)
0.05 in
(1.27 mm)
2SM
12:53
Overcast
Light Rain
45°F / 7°C 41°F / 5°C 87% 29.5 in
(999 mb)
SSE 19.6 mph
(SSE 32 kph)
0.03 in
(0.76 mm)
3SM
11:58
Overcast
Fog And Mist
45°F / 7°C 43°F / 6°C 93% 29.5 in
(999 mb)
S 15 mph
(S 24 kph)
0.00 in
(0.00 mm)
5SM
11:53
Overcast
Light Rain
45°F / 7°C 43°F / 6°C 93% 29.5 in
(999 mb)
SSE 17.3 mph
(SSE 28 kph)
0.02 in
(0.51 mm)
8SM
10:59
Overcast
Light Rain
45°F / 7°C 43°F / 6°C 93% 29.5 in
(999 mb)
S 19.6 mph
(S 32 kph)
0.00 in
(0.00 mm)
5SM
10:53
Overcast
Fog And Mist
45°F / 7°C 45°F / 7°C 100% 29.47 in
(998 mb)
S 17.3 mph
(S 28 kph)
0.01 in
(0.25 mm)
5SM
10:26
Overcast
Fog And Mist
46°F / 8°C 45°F / 7°C 93% 29.47 in
(998 mb)
S 21.9 mph
(S 35 kph)
0.01 in
(0.25 mm)
4SM
09:53
Overcast
Rain
45°F / 7°C 41°F / 5°C 87% 29.47 in
(998 mb)
SE 13.8 mph
(SE 22 kph)
0.03 in
(0.76 mm)
4SM
09:15
Overcast
Light Rain
45°F / 7°C 39°F / 4°C 81% 29.44 in
(997 mb)
ESE 23 mph
(ESE 37 kph)
0.00 in
(0.00 mm)
10SM
08:53
Overcast
Light Rain
45°F / 7°C 41°F / 5°C 87% 29.44 in
(997 mb)
ESE 20.7 mph
(ESE 33 kph)
0.09 in
(2.29 mm)
10SM
07:53
Overcast
Light Rain
45°F / 7°C 43°F / 6°C 93% 29.47 in
(998 mb)
SE 5.8 mph
(SE 9 kph)
0.06 in
(1.52 mm)
5SM
06:53
Overcast
Light Rain
45°F / 7°C 43°F / 6°C 93% 29.47 in
(998 mb)
SSE 8.1 mph
(SSE 13 kph)
0.01 in
(0.25 mm)
10SM
05:53
Overcast
Light Rain
45°F / 7°C 39°F / 4°C 81% 29.53 in
(1000 mb)
SE 11.5 mph
(SE 19 kph)
0.01 in
(0.25 mm)
10SM
04:53
Overcast
45°F / 7°C 39°F / 4°C 81% 29.56 in
(1001 mb)
ESE 16.1 mph
(ESE 26 kph)
- 10SM
03:53
Overcast
45°F / 7°C 41°F / 5°C 87% 29.62 in
(1003 mb)
S 9.2 mph
(S 15 kph)
- 10SM
02:53
Overcast
45°F / 7°C 39°F / 4°C 81% 29.65 in
(1004 mb)
SE 10.4 mph
(SE 17 kph)
- 10SM
01:53
Mostly Cloudy
45°F / 7°C 43°F / 6°C 93% 29.68 in
(1005 mb)
SSE 12.7 mph
(SSE 20 kph)
- 10SM
00:53
Overcast
45°F / 7°C 43°F / 6°C 93% 29.68 in
(1005 mb)
SSE 3.5 mph
(SSE 6 kph)
0.00 in
(0.00 mm)
10SM
00:44
Overcast
45°F / 7°C 43°F / 6°C 93% 29.68 in
(1005 mb)
SE 3.5 mph
(SE 6 kph)
0.00 in
(0.00 mm)
10SM
Time Weather Temperature Dewpoint Humidity Pressure Winds Precip Visibility


Weather for websites

WeatherForYou.com, LLC is not responsible for any damages or problems caused by this service. Current weather conditions are obtained from the closest station including government and personal stations which may have varying degrees of accuracy. Weather forecasts are derived from the NOAA NDFD. Like all things, this site belongs to Jesus Christ... He just trusts me to maintain it. If you have any questions or comments email webmaster@weatherforyou.com

Copyright © 2015, WeatherForYou.com LLC. All rights reserved.